Simultaneous Nadir Overpasses (SNOs) Predictions

Prediction of SNOs between GOES-14 and NOAA-20 Satellite Orbit:

Table of predicted SNOs for the next 14.0 days since TLE Epoch: 8/2/2025
Index Date Time (GOES-14) GOES-14 Lat,Lon NOAA-20 Lat,Lon Distance(km) Time Diff (sec)
1 08/03/2025 08:36:34 -0.80,-107.92 -0.67,-108.53 69.93 80
2 08/04/2025 08:20:29 -0.78,-107.92 -1.64,-103.99 447.83 80
3 08/05/2025 20:39:47 0.83,-107.95 0.55,-109.31 155.07 80
4 08/06/2025 20:23:42 0.81,-107.96 1.52,-104.77 362.99 80
5 08/08/2025 08:42:50 -0.85,-107.97 -0.40,-110.05 237.06 80
6 08/09/2025 08:26:44 -0.84,-107.97 -1.37,-105.51 280.61 80
7 08/10/2025 20:46:02 0.87,-107.99 0.23,-110.82 322.79 80
8 08/11/2025 20:29:57 0.86,-108.00 1.26,-106.29 195.38 80
9 08/13/2025 08:49:05 -0.88,-108.02 -0.09,-111.56 403.48 80
10 08/14/2025 08:33:00 -0.87,-108.02 -1.12,-107.03 114.06 80
11 08/15/2025 20:52:16 0.89,-108.02 -0.07,-112.33 490.45 80
